#timestamp,LO_Frequency,Hit,StdDev 
1459454415.9,286046998.1,N
1459454435.7,286047001.6,N
1459454455.5,286047000.3,N
1459454475.4,286047001.8,N
1459454495.2,286046999.7,N
1459454515.0,286046999.8,N
1459454515.9,286046999.8,N
1459454535.8,286047002.5,N
1459454555.6,286046999.9,N
1459454575.4,286046996.5,N
1459454595.2,286046999.2,N
1459454615.1,286046997.1,N
1459454616.0,286046997.1,N
1459454635.8,286046995.2,N
1459454655.6,286046998.0,N
1459454675.5,286046999.2,N
1459454695.3,286047001.2,N
1459454715.1,286046997.4,N
1459454735.9,286046997.7,N
1459454755.7,286046995.3,N
1459454775.5,286046997.7,N
1459454795.4,286047000.8,N
1459454815.2,286047000.7,N
1459454835.0,286047000.9,N
1459454835.9,286047000.9,N
1459454855.8,286046999.0,N
1459454875.6,286047001.0,N
1459454895.4,286047001.5,N
1459454915.2,286046999.9,N
1459454935.1,286046999.1,N
1459454936.0,286046999.1,N
1459454955.8,286046997.2,N
1459454975.6,286046994.9,N
1459454995.5,286046997.1,N
1459455015.3,286046998.6,N
1459455035.1,286046998.3,N
1459455055.9,286046998.9,N
1459455075.7,286046998.2,N
1459455095.5,286046997.4,N
1459455115.4,286046997.8,N
1459455135.2,286046997.0,N
1459455155.0,286046999.9,N
1459455155.9,286046999.9,N
1459455175.8,286047000.9,N
1459455195.6,286046996.5,N
1459455215.4,286046996.6,N
1459455235.3,286047000.3,N
1459455255.1,286047004.0,N
1459455256.0,286047004.0,N
1459455275.8,286047001.5,N
1459455295.6,286047001.5,N
1459455315.5,286047001.6,N
1459455335.3,286047001.5,N
1459455355.1,286047004.1,N
1459455375.9,286047005.8,N
1459455395.7,286047005.0,N
1459455415.5,286047005.0,N
1459455435.4,286047005.9,N
1459455455.2,286047003.0,N
1459455475.0,286047007.4,N
1459455475.9,286047007.4,N
1459455495.8,286047009.1,N
1459455515.6,286047006.5,N
1459455535.4,286047008.2,N
1459455555.3,286047010.5,N
1459455575.1,286047008.1,N
1459455576.0,286047008.1,N
1459455595.8,286047007.1,N
1459455615.7,286047003.3,N
1459455635.5,286047003.9,N
1459455655.3,286047004.1,N
1459455675.1,286047003.4,N
1459455695.9,286047003.2,N
1459455715.7,286047005.5,N
1459455735.5,286047007.3,N
1459455755.4,286047006.5,N
1459455775.2,286047005.1,N
1459455795.0,286047005.6,N
1459455795.9,286047005.6,N
1459455815.8,286047005.5,N
1459455835.6,286047003.5,N
1459455855.4,286047001.6,N
1459455875.3,286047003.3,N
1459455895.1,286047003.2,N
1459455896.0,286047003.2,N
1459455915.8,286047003.6,N
1459455935.7,286047003.0,N
1459455955.5,286047006.0,N
1459455975.3,286047003.4,N
1459455995.2,286047003.7,N
1459456015.9,286047006.8,Y
1459456035.7,286047001.9,P
1459456055.6,286047002.8,N
1459456075.4,286047002.3,N
1459456095.2,286046998.9,N
1459456115.1,286046998.6,N
1459456116.0,286046998.6,N
1459456135.8,286046996.9,N
1459456155.6,286046998.9,N
1459456175.4,286046998.7,N
1459456195.3,286047000.4,N
1459456215.1,286047002.4,N
1459456235.8,286047000.1,N
1459456255.7,286047000.6,N
1459456275.5,286046999.9,N
1459456295.3,286047000.7,N
1459456315.2,286047001.2,N
1459456335.9,286047000.5,N
1459456355.7,286046999.8,N
1459456375.6,286047000.2,N
1459456395.4,286046998.3,N
1459456415.2,286046996.6,N
1459456435.1,286046996.9,N
1459456436.0,286046996.9,N
1459456455.8,286046995.0,N
1459456475.6,286046997.0,N
1459456495.5,286046995.5,N
1459456515.3,286046997.7,N
1459456535.1,286046996.8,N
1459456555.8,286046996.8,N
1459456575.7,286046995.9,N
1459456595.5,286046996.3,N
1459456615.3,286046995.7,N
1459456635.2,286046993.9,Y
1459456655.0,286046996.7,P
1459456655.9,286046996.7,P
1459456675.7,286046995.7,P
1459456695.6,286046996.2,Y
1459456715.4,286046998.7,P
1459456735.2,286046997.2,P
1459456755.1,286046997.9,N
1459456756.0,286046997.9,Y
1459456775.8,286046998.5,P
1459456795.6,286047000.9,N
1459456815.5,286047001.7,N
1459456835.3,286047005.7,Y
1459456855.1,286047005.1,P
1459456875.9,286047005.8,N
1459456895.7,286047006.8,N
1459456915.6,286047010.4,Y
1459456935.4,286047003.1,P
1459456955.2,286047005.9,P
1459456975.0,286047001.4,N
1459456975.9,286047001.4,N
1459456995.8,286047003.8,N
1459457015.6,286047002.3,N
1459457035.4,286046998.4,N
1459457055.3,286047001.0,N
1459457075.1,286046998.8,N
1459457095.8,286046999.3,N
1459457115.7,286046998.8,N
1459457135.5,286046996.1,N
1459457155.3,286046995.7,N
1459457175.2,286046993.7,N
1459457195.9,286046997.0,N
1459457215.7,286046996.8,N
1459457235.6,286046998.7,N
1459457255.4,286047001.1,N
1459457275.2,286047000.4,N
1459457295.0,286046999.1,N
1459457295.9,286046999.1,N
1459457315.8,286046999.9,N
1459457335.6,286047001.6,N
1459457355.4,286047001.7,N
1459457375.3,286047002.6,N
1459457395.1,286046999.5,N
1459457396.0,286046999.5,N
1459457415.8,286046998.9,N
1459457435.7,286046997.1,N
1459457455.5,286046993.7,N
1459457475.3,286046992.1,N
1459457495.2,286046992.8,N
1459457515.9,286046989.0,Y
1459457535.7,286046988.7,P
1459457555.6,286046987.4,N
1459457575.4,286046986.7,N
1459457595.2,286046984.1,Y
1459457615.1,286046994.0,P
1459457616.0,286046994.0,P
1459457635.8,286046994.2,P
1459457655.6,286046994.4,Y
1459457675.5,286047001.1,P
1459457695.3,286046998.7,N
1459457715.1,286046998.6,N
1459457735.9,286047000.9,N
1459457755.7,286046999.3,N
1459457775.5,286046996.9,N
1459457795.3,286046998.9,N
1459457815.2,286047001.2,N
1459457835.0,286047000.9,N
1459457835.9,286047000.9,N
1459457855.7,286047000.5,N
1459457875.6,286047001.9,N
1459457895.4,286047002.0,N
1459457915.2,286047003.4,N
1459457935.1,286047007.3,Y
1459457936.0,286047007.3,P
1459457955.8,286047007.4,N
1459457975.6,286047006.2,N
1459457995.5,286047008.3,N
